Volver al catálogo

CHUANG XIN 20B

CX-20B

ActivoComunicacionesLEO
NORAD 58426·PAYLOAD·🇨🇳 China

Lanzado Nov 23, 2023 desde Xichang Satellite Launch Center

Loading…

Próximos Pases (próximas 24 horas)

TLE

ActualizadoSource: Space-Track

Época: Sep 14, 2026, 20:04 UTC

1 58426U 23181B   26257.83643274 -.00000085  00000-0  77046-4 0  9991
2 58426  49.9608 358.0338 0011900 183.2534 176.8268 13.41498621137772

Sigue CHUANG XIN 20B en tiempo real con AllMySat

Download on the App Store